Location: Unspecified
(0.0000°N, 0.0000°E)
Time: 08:49:07
(UTC+00:00)

Courier 1B Rocket - All Passes

Search period start: 27 August 2014 00:00
Search period end: 06 September 2014 00:00
Orbit: 921 x 1202 km, 28.2° (Epoch: 25 August)

Date Brightness Start Highest point End Pass type
(mag) Time Alt. Az. Time Alt. Az. Time Alt. Az.
27 Aug - 01:40:22 10° NW 01:43:20 13° NNW 01:46:14 10° N night (unlit)
27 Aug - 07:28:12 10° N 07:30:02 11° NNE 07:31:51 10° NE daylight
27 Aug - 09:18:03 10° NW 09:23:57 42° NNE 09:30:07 10° E daylight
27 Aug - 11:11:09 10° WNW 11:17:26 52° SSW 11:24:10 10° SE daylight
27 Aug - 13:07:27 10° WSW 13:11:36 17° SSW 13:15:56 10° SSE daylight
27 Aug - 18:55:45 10° S 18:59:29 14° SSE 19:03:12 10° SE visible
27 Aug - 20:46:58 10° SW 20:54:11 40° SSE 21:01:06 10° E visible
27 Aug - 22:40:28 10° WSW 22:48:05 66° NNW 22:55:13 10° NE night (unlit)
28 Aug - 00:36:56 10° WNW 00:41:59 20° NNW 00:46:50 10° NNE night (unlit)
28 Aug - 08:17:47 10° NNW 08:22:57 27° NNE 08:28:15 10° E daylight
28 Aug - 10:10:05 10° WNW 10:16:25 80° SSW 10:23:10 10° ESE daylight
28 Aug - 12:05:08 10° WSW 12:10:14 23° SSW 12:15:36 10° SSE daylight
28 Aug - 19:46:17 10° SSW 19:52:47 28° SSE 19:59:10 10° E visible
28 Aug - 21:39:04 10° WSW 21:46:53 85° SSE 21:54:19 10° ENE visible
28 Aug - 23:34:20 10° W 23:40:43 30° NNW 23:46:47 10° NNE night (unlit)
29 Aug - 07:17:49 10° NNW 07:21:52 18° NNE 07:25:55 10° ENE daylight
29 Aug - 09:09:17 10° NW 09:15:29 67° NNE 09:21:58 10° ESE daylight
29 Aug - 11:03:20 10° W 11:09:02 33° SSW 11:15:04 10° SE daylight
29 Aug - 13:02:03 10° SSW 13:03:33 11° SSW 13:05:04 10° S daylight
29 Aug - 18:45:53 10° SSW 18:51:18 20° SSE 18:56:42 10° ESE visible
29 Aug - 20:37:55 10° SW 20:45:38 59° SSE 20:53:05 10° ENE visible
29 Aug - 22:32:14 10° W 22:39:30 44° NNW 22:46:23 10° NE night (unlit)
30 Aug - 00:30:20 10° NW 00:33:44 14° NNW 00:37:03 10° N night (unlit)
30 Aug - 06:18:35 10° N 06:20:38 12° NNE 06:22:40 10° NE daylight
30 Aug - 08:08:43 10° NW 08:14:33 42° NNE 08:20:32 10° E daylight
30 Aug - 10:01:55 10° WNW 10:07:58 50° SSW 10:14:21 10° SE daylight
30 Aug - 11:58:28 10° SW 12:02:03 15° SSW 12:05:46 10° SSE daylight
30 Aug - 17:45:55 10° S 17:49:41 14° SSE 17:53:29 10° SE daylight
30 Aug - 19:37:02 10° SW 19:44:19 41° SSE 19:51:29 10° E visible
30 Aug - 21:30:31 10° WSW 21:38:16 66° NNW 21:45:42 10° NE visible
30 Aug - 23:26:58 10° WNW 23:32:19 21° NNW 23:37:28 10° NNE night (unlit)
31 Aug - 07:08:22 10° NNW 07:13:35 28° NNE 07:18:48 10° E daylight
31 Aug - 09:00:48 10° WNW 09:07:01 77° SSW 09:13:28 10° SE daylight
31 Aug - 10:56:02 10° WSW 11:00:45 21° SSW 11:05:39 10° SSE daylight
31 Aug - 18:36:25 10° SSW 18:42:56 29° SSE 18:49:28 10° E visible
31 Aug - 20:29:08 10° WSW 20:37:01 87° SSE 20:44:42 10° ENE visible
31 Aug - 22:24:23 10° W 22:30:58 30° NNW 22:37:18 10° NNE visible
01 Sep - 06:08:16 10° NNW 06:12:29 18° NNE 06:16:38 10° ENE daylight
01 Sep - 07:59:56 10° NW 08:06:07 69° NNE 08:12:24 10° ESE daylight
01 Sep - 09:54:09 10° W 09:59:36 31° SSW 10:05:16 10° SSE daylight
01 Sep - 17:36:07 10° SSW 17:41:28 20° SSE 17:46:54 10° ESE daylight
01 Sep - 19:28:03 10° SW 19:35:44 61° SSE 19:43:24 10° ENE visible
01 Sep - 21:22:18 10° W 21:29:40 44° NNW 21:36:48 10° NE visible
01 Sep - 23:20:17 10° NW 23:24:03 14° NNW 23:27:44 10° N night (unlit)
02 Sep - 05:08:41 10° N 05:11:13 12° NNE 05:13:43 10° NE visible
02 Sep - 06:59:16 10° NW 07:05:12 44° NNE 07:11:06 10° E daylight
02 Sep - 08:52:39 10° WNW 08:58:36 47° SSW 09:04:42 10° SE daylight
02 Sep - 10:49:32 10° SW 10:52:35 14° SSW 10:55:42 10° S daylight
02 Sep - 16:36:18 10° S 16:39:55 14° SSE 16:43:35 10° SE daylight
02 Sep - 18:27:14 10° SW 18:34:26 42° SSE 18:41:43 10° E visible
02 Sep - 20:20:38 10° WSW 20:28:22 64° NNW 20:36:01 10° NE visible
02 Sep - 22:17:01 10° WNW 22:22:33 21° NNW 22:27:57 10° NNE visible
03 Sep - 05:58:47 10° NNW 06:04:12 29° NNE 06:09:29 10° E daylight
03 Sep - 07:51:26 10° WNW 07:57:40 74° SSW 08:03:56 10° SE daylight
03 Sep - 09:46:54 10° WSW 09:51:19 20° SSW 09:55:51 10° SSE daylight
03 Sep - 17:26:43 10° SSW 17:33:05 29° SSE 17:39:37 10° E daylight
03 Sep - 19:19:18 10° WSW 19:27:06 89° SSE 19:34:57 10° ENE visible
03 Sep - 21:14:29 10° W 21:21:08 30° NNW 21:27:40 10° NNE visible
04 Sep - 04:58:31 10° NNW 05:03:04 20° NNE 05:07:29 10° ENE visible
04 Sep - 06:50:27 10° NW 06:56:47 72° NNE 07:02:59 10° ESE daylight
04 Sep - 08:44:53 10° W 08:50:13 29° SSW 08:55:38 10° SSE daylight
04 Sep - 16:26:32 10° SSW 16:31:41 20° SSE 16:37:00 10° ESE daylight
04 Sep - 18:18:18 10° SW 18:25:50 62° SSE 18:33:34 10° ENE visible
04 Sep - 20:12:28 10° W 20:19:46 43° NNW 20:27:04 10° NE visible
04 Sep - 22:10:20 10° NW 22:14:18 15° NNW 22:18:13 10° N visible
05 Sep - 03:58:37 10° N 04:01:46 14° NNE 04:04:51 10° NE visible
05 Sep - 05:49:40 10° NW 05:55:50 46° NNE 06:01:47 10° E daylight
05 Sep - 07:43:16 10° WNW 07:49:15 45° SSW 07:55:11 10° SE daylight
05 Sep - 09:40:35 10° SW 09:43:10 13° SSW 09:45:47 10° S daylight
05 Sep - 15:26:55 10° S 15:30:12 13° SSE 15:33:34 10° SE daylight
05 Sep - 17:17:35 10° SW 17:24:34 42° SSE 17:31:50 10° E daylight
05 Sep - 19:10:52 10° WSW 19:18:28 63° NNW 19:26:12 10° NE visible
05 Sep - 21:07:10 10° WNW 21:12:44 21° NNW 21:18:16 10° NNE visible
